Regional Weather Roundup
Issued by NWS

Home | Current Version | Previous Version | Text Only | Print | Product List | Glossary On
Versions: 1 2 3 4 5 6 7 8 9 10 11 12 13 14 15 16 17 18 19 20 21 22 23 24 25 26 27 28 29 30 31 32 33 34 35 36 37 38 39 40 41 42 43 44 45 46 47 48 49 50
727
ASUS44 KEWX 271803
RWRTX
SOUTH TEXAS REGIONAL WEATHER ROUNDUP
NATIONAL WEATHER SERVICE AUSTIN/SAN ANTONIO TX
100 PM CDT MON MAR 27 2017

NOTE: "FAIR" INDICATED FEW OR NO CLOUDS BELOW 12,000 FEET WITH NO
SIGNIFICANT WEATHER AND/OR OBSTRUCTIONS TO VISIBILITY.

* - THESE STATIONS ARE NOT NWS OR FAA STATIONS...AND ARE NOT SUBJECT
    TO NWS AND FAA QUALITY CONTROL.

TXZ171-172-183>190-271900-
TEXAS HILL COUNTRY AND EDWARDS PLATEAU

CITY           SKY/WX    TMP DP  RH WIND       PRES   REMARKS
JUNCTION       SUNNY     77  46  33 VRB3      29.93F
6HR MIN TEMP:  54; 6HR MAX TEMP:  77;

*LLANO         SUNNY     75  52  43 CALM      29.95F
BURNET         SUNNY     76  59  55 VRB5      29.93F
6HR MIN TEMP:  68; 6HR MAX TEMP:  77;

*HORSESHOE BAY SUNNY     77  62  59 N3        29.91F
6HR MIN TEMP:  68; 6HR MAX TEMP:  78;

*KERRVILLE     SUNNY     79  61  54 CALM      29.92F
6HR MIN TEMP:  66; 6HR MAX TEMP:  79;

*FREDERICKSBRG SUNNY     77  59  53 N3        29.93F
*ROCKSPRINGS   SUNNY     73  59  60 NW3       29.97F
*BOERNE STAGE  SUNNY     75  63  64 CALM      29.93F
*CASTROVILLE   CLOUDY    78  64  62 SE5       29.92F
HONDO          MOSUNNY   80  66  62 VRB3      29.90F
6HR MIN TEMP:  68; 6HR MAX TEMP:  81;

*UVALDE        MOSUNNY   78  67  69 CALM      29.91F
6HR MIN TEMP:  68; 6HR MAX TEMP:  78;

DEL RIO        SUNNY     80  64  58 S6        29.88F
6HR MIN TEMP:  64; 6HR MAX TEMP:  80;

LAUGHLIN AFB   MOSUNNY   77  68  73 SE5       29.90F HAZE
CARRIZO SPRGS  CLOUDY    75  66  73 E6        29.89S
*EAGLE PASS    MOCLDY    79  66  65 E8        29.90F
$$

TXZ173-191>194-202-209-217>225-228-271900-
CENTRAL AND SOUTH CENTRAL TEXAS

CITY           SKY/WX    TMP DP  RH WIND       PRES   REMARKS
GEORGETOWN     NOT AVBL
AUSTIN/BERGSTM PTSUNNY   79  66  64 CALM      29.90F
6HR MIN TEMP:  68; 6HR MAX TEMP:  79;

AUSTIN/MABRY   MOSUNNY   82  65  56 SE5       29.90F
6HR MIN TEMP:  70; 6HR MAX TEMP:  82;

*AUSTIN/EXEC     N/A    N/A N/A N/A MISG        N/A
*LAGO VISTA    SUNNY     79  63  58 CALM      29.92F
6HR MIN TEMP:  68; 6HR MAX TEMP:  79;

SAN MARCOS     PTSUNNY   79  64  61 SW5       29.91F
NEW BRAUNFELS  PTSUNNY   82  66  58 S7        29.88F
6HR MIN TEMP:  69; 6HR MAX TEMP:  82;

RANDOLPH AFB   PTSUNNY   79  68  69 SE6       29.90F
6HR MIN TEMP:  65; 6HR MAX TEMP:  79;

PT SAN ANTONIO PTSUNNY   78  67  70 S5        29.88F
6HR MIN TEMP:  65; 6HR MAX TEMP:  78;

SAN ANTONIO    MOSUNNY   78  66  66 VRB6      29.90F
6HR MIN TEMP:  67; 6HR MAX TEMP:  79;

STINSON FIELD  CLOUDY    77  66  68 S8        29.89S
6HR MIN TEMP:  68; 6HR MAX TEMP:  78;

*PLEASANTON    CLOUDY    75  67  76 SE5       29.91F
6HR MIN TEMP:  68; 6HR MAX TEMP:  75;

*LA GRANGE     CLOUDY    79  69  72 W3        29.89F
*GIDDINGS      CLOUDY    76  65  68 CALM      29.91F
6HR MIN TEMP:  65; 6HR MAX TEMP:  76;

*GONZALES      CLOUDY    78  70  75 MISG      29.90S
6HR MIN TEMP:  66; 6HR MAX TEMP:  78;

$$

TXZ163>164-176>182-195>201-210>213-226-227-235-271900-
SOUTHEAST TEXAS

CITY           SKY/WX    TMP DP  RH WIND       PRES   REMARKS
COLLEGE STN    CLOUDY    76  68  76 CALM      29.91S
6HR MIN TEMP:  67; 6HR MAX TEMP:  76;

*BRYAN         CLOUDY    75  68  79 W5        29.92F
6HR MIN TEMP:  66; 6HR MAX TEMP:  75;

*CALDWELL      NOT AVBL
*CROCKETT      PTSUNNY   73  66  78 SW7       29.95S
*BRENHAM       CLOUDY    79  67  67 SW3       29.92S
HUNTSVILLE     CLOUDY    78  65  63 SW6       29.92S
6HR MIN TEMP:  69; 6HR MAX TEMP:  78;

CONROE         CLOUDY    80  65  59 SW9       29.91F
6HR MIN TEMP:  67; 6HR MAX TEMP:  80;

HOUSTON BUSH   PTSUNNY   83  66  56 S7        29.90F
6HR MIN TEMP:  71; 6HR MAX TEMP:  83;

HOUSTON HOBBY  MOSUNNY   82  67  60 S15       29.90F
6HR MIN TEMP:  71; 6HR MAX TEMP:  83;

*HOUSTON SW AP MOSUNNY   82  69  63 S7        29.91F
6HR MIN TEMP:  68; 6HR MAX TEMP:  82;

PEARLAND       PTSUNNY   84  66  54 S13       29.92F
6HR MIN TEMP:  73; 6HR MAX TEMP:  84;

HOUSTON HOOKS  PTSUNNY   82  66  58 S8        29.90F
6HR MIN TEMP:  70; 6HR MAX TEMP:  83;

ELLINGTON FLD  PTSUNNY   84  66  54 S14       29.92F
SUGAR LAND     PTSUNNY   84  68  58 S12       29.89F
6HR MIN TEMP:  71; 6HR MAX TEMP:  84;

*HOUSTON EXEC  PTSUNNY   82  68  61 SW9       29.92S
*CLEVELAND MUN PTSUNNY   82  68  61 SW8       29.93S
*WHARTON       SUNNY     83  62  49 S12       29.91F
*COLUMBUS      CLOUDY    80  67  63 S8        29.91S
*EAGLE LAKE    MOCLDY    82  69  64 SW12      29.89F
6HR MIN TEMP:  69; 6HR MAX TEMP:  83;

$$

TXZ214>216-236>238-271900-
THE UPPER TEXAS COAST

CITY           SKY/WX    TMP DP  RH WIND       PRES   REMARKS
*ORANGE        CLOUDY    76  71  83 S14       29.96F
6HR MIN TEMP:  71; 6HR MAX TEMP:  79;

PORT ARTHUR    CLOUDY    79  69  71 S14       29.94R
6HR MIN TEMP:  70; 6HR MAX TEMP:  81; 6HR PCP: TRACE;

GALVESTON      MOSUNNY   80  73  79 S14       29.94S
6HR MIN TEMP:  74; 6HR MAX TEMP:  80;

ANGLETON       CLOUDY    82  70  66 S16       29.92S
6HR MIN TEMP:  73; 6HR MAX TEMP:  83;

*BAY CITY      PTSUNNY   82  70  68 S10G18    29.91F
PALACIOS       MOSUNNY   80  70  71 S13       29.90F
6HR MIN TEMP:  69; 6HR MAX TEMP:  81;

$$

TXZ229>234-239>247-271900-
TEXAS COASTAL BEND AND RIO GRANDE PLAINS

CITY           SKY/WX    TMP DP  RH WIND       PRES   REMARKS
VICTORIA       MOSUNNY   82  68  62 S9        29.89F
6HR MIN TEMP:  69; 6HR MAX TEMP:  84;

*BEEVILLE      PTSUNNY   84  69  61 S10G18    29.88F
ROCKPORT       PTSUNNY   82  71  69 SE14      29.89F HAZE
6HR MIN TEMP:  72; 6HR MAX TEMP:  82;

*PORT ARANSAS  CLOUDY    77  71  80 E8        29.90F
6HR MIN TEMP:  70; 6HR MAX TEMP:  77;

*PORT LAVACA   PTSUNNY   81  71  71 S14G20    29.90F
*INGLESIDE     CLOUDY    80  73  76 SE6       29.89F
CORPUS CHRISTI PTSUNNY   81  71  71 SE15      29.88F
6HR MIN TEMP:  71; 6HR MAX TEMP:  82;

CORPUS NAS     CLOUDY    78  71  79 SE14      29.88F
6HR MIN TEMP:  72; 6HR MAX TEMP:  78;

*ROBSTOWN      PTSUNNY   84  69  59 CALM      29.88F
ALICE          CLOUDY    82  67  60 S8        29.87F
6HR MIN TEMP:  70; 6HR MAX TEMP:  84;

KINGSVILLE NAS PTSUNNY   84  71  65 SE7       29.86F
6HR MIN TEMP:  70; 6HR MAX TEMP:  84;

COTULLA        CLOUDY    76  66  71 SE9       29.89F
6HR MIN TEMP:  68; 6HR MAX TEMP:  77;

*FAITH RANCH   CLOUDY    75  68  78 NE6       29.89F
LAREDO         CLOUDY    77  67  71 E3        29.89F
6HR MIN TEMP:  65; 6HR MAX TEMP:  77;

$$

TXZ248>255-271900-
DEEP SOUTH TEXAS

CITY           SKY/WX    TMP DP  RH WIND       PRES   REMARKS
BROWNSVILLE    PTSUNNY   84  70  62 SE15      29.86F
6HR MIN TEMP:  70; 6HR MAX TEMP:  86;

PORT ISABEL    PTSUNNY   87  69  54 S18G24    29.84F HX  91
6HR MIN TEMP:  70; 6HR MAX TEMP:  87; 6HR PCP: TRACE;

*SOUTH PADRE   NOT AVBL
HARLINGEN      PTSUNNY   85  70  60 S16G24    29.83F
6HR MIN TEMP:  67; 6HR MAX TEMP:  87;

*HEBBRONVILLE  PTSUNNY   78  66  66 CALM      29.88F
MCALLEN        MOSUNNY   88  69  53 S10G21    29.84F HX  92
6HR MIN TEMP:  70; 6HR MAX TEMP:  88;

*WESLACO       MOSUNNY   87  68  54 S15       29.83F HX  90
6HR MIN TEMP:  69; 6HR MAX TEMP:  88;

FALFURRIAS     CLOUDY    83  68  60 S7        29.86F
EDINBURG



USA.gov is the U.S. government's official web portal to all federal, state and local government web resources and services.